[[{"header":{"parameterUnit":"m.s-1","parameterCategory":1,"la1":30.2991,"la2":30.254,"lo1":-89.0895,"lo2":-89.0444,"dy":0.0017,"dx":0.0017,"nx":28,"ny":28,"refTime":"2025-03-31T03:00:00:Z","depth":0,"parameterNumber":2,"parameterNumberName":"U-component_of_WINDS"},"data":[0,0,0,0,0,0,0,0,0,0,0,0,0,0,0,0,0,0,0,0,0,0,0,0,0,0,0,0,0,0,0,0,0,0,0,0,0,0,0,0,0,0,0,0,0,0,0,0,0,0,0,0,0,0,0,0,0,0,-0.9431,-0.9432,0,-0.956,-0.9562,-0.9563,-0.9559,-0.9557,-0.9556,-0.9554,-0.969,-0.9695,-0.97,0,0,0,0,0,0,0,0,0,0,0,0,0,-0.9181,-0.9186,-0.9431,-0.9432,-0.9434,-0.956,-0.9562,-0.9564,-0.956,-0.9557,-0.9555,-0.9553,-0.9688,-0.9694,-0.97,0,0,0,0,0,0,0,0,0,0,0,0,0,-0.9298,-0.9187,-0.943,-0.9447,-0.945,-0.956,-0.9562,-0.9564,-0.956,-0.9557,-0.9555,-0.9552,-0.9686,-0.9694,-0.9701,-0.9804,0,0,-0.9726,-0.9729,0,0,0,0,0,0,0,0,-0.9291,-0.9307,-0.9443,-0.9446,-0.9449,-0.9541,-0.9524,-0.9645,-0.9561,-0.9518,-0.9554,-0.9551,-0.9642,-0.9654,-0.9684,-0.9811,-0.9816,-0.9726,-0.9731,-0.9734,-0.9737,0,0,0,0,0,0,0,-0.9283,-0.9302,-0.9482,-0.9445,-0.9449,-0.9448,-0.9462,-0.9547,-0.9594,-0.9522,-0.9522,-0.9537,-0.9644,-0.9676,-0.9687,-0.9818,-0.9726,-0.9733,-0.9738,-0.9741,-1.0033,-1.0036,0,0,0,0,0,0,-0.9271,-0.9295,-0.9478,-0.9486,-0.9362,-0.9455,-0.947,-0.9514,-0.9593,-0.9602,-0.9539,-0.9536,-0.9664,-0.9678,-0.9692,-0.9816,-0.9734,-0.9742,-0.9746,-1.0031,-1.0034,-1.0037,0,0,0,0,0,0,-0.9266,-0.9288,-0.9473,-0.939,-0.9414,-0.9462,-0.9512,-0.9518,-0.9551,-0.9606,-0.9615,-0.9564,-0.9663,-0.9681,-0.9776,-0.982,-0.9745,-0.9753,-1.0027,-1.0032,-1.0036,-1.0065,0,0,0,0,0,0,-0.9259,-0.9286,-0.9325,-0.9391,-0.9418,-0.9554,-0.9514,-0.9523,-0.9564,-0.9562,-0.9632,-0.9641,-0.9662,-0.9764,-0.9783,-0.983,-0.9759,-1.0023,-1.0029,-1.0034,-1.006,-1.007,-1.0078,0,0,0,0,0,-0.925,-0.9329,-0.9327,-0.9349,-0.9468,-0.9556,-0.9572,-0.9594,-0.9568,-0.9608,-0.9643,-0.9638,-0.9813,-0.9774,-0.9796,-0.9845,-1.002,-1.0027,-1.0034,-1.0056,-1.0068,-1.0078,0,0,0,0,0,0,-0.9269,-0.9338,-0.9337,-0.944,-0.9492,-0.9555,-0.9606,-0.9606,-0.9668,-0.9663,-0.9689,-0.9705,-0.9799,-0.9832,-0.9787,-0.9948,-0.9913,-0.9925,-0.9922,-0.9934,-0.9943,-0.9932,-0.9765,0,0,0,0,0,-0.9284,-0.9349,-0.9407,-0.9493,-0.9519,-0.9558,-0.9597,-0.961,-0.9665,-0.9687,-0.973,-0.9784,-0.9851,-0.9895,-0.996,-1.0065,-1.008,-1.011,-1.0119,-1.0126,-1.0136,-1.0192,-1.0206,-1.006,-1.006,-1.0059,0,0,-0.9318,-0.9364,-0.9404,-0.9497,-0.9539,-0.9606,-0.9577,-0.9649,-0.9699,-0.9699,-0.979,-0.9823,-0.9886,-0.9986,-1.0032,-1.0016,-1.0179,-1.0135,-1.014,-1.0146,-1.02,-1.0214,-1.0226,-1.0064,-1.0063,-1.0063,0,0,-0.9413,-0.9456,-0.953,-0.9572,-0.9635,-0.9661,-0.9678,-0.9742,-0.9763,-0.9855,-0.9856,-0.9916,-1.0031,-1.0075,-1.0112,-1.0223,-1.022,-1.0243,-1.029,-1.0344,-1.0356,-1.0366,-1.0404,-1.0417,-1.0253,-1.0253,-1.0253,0,-0.9448,-0.9547,-0.9569,-0.964,-0.9681,-0.9683,-0.9758,-0.9798,-0.988,-0.9908,-0.9889,-1.0032,-1.0075,-1.0184,-1.021,-1.0242,-1.0262,-1.0235,-1.0352,-1.0363,-1.0373,-1.0409,-1.0423,-1.0255,-1.0255,-1.0254,-1.0254,0,-0.9585,-0.9654,-0.9707,-0.9783,-0.983,-0.9904,-0.9936,-0.9981,-0.9989,-1.0017,-1.0109,-1.016,-1.0234,-1.0262,-1.0272,-1.0372,-1.036,-1.0347,-1.0312,-1.0389,-1.0423,-1.0437,-1.0258,-1.0257,-1.0257,-1.0256,0,0,-0.9696,-0.9782,-0.9801,-0.9834,-0.9904,-0.9958,-1.0031,-1.0102,-1.0139,-1.0196,-1.0257,-1.0354,-1.0341,-1.0383,-1.0398,-1.0446,-1.0528,-1.0427,-1.0429,-1.0442,-1.064,-1.0648,-1.0663,-1.0527,-1.053,-1.0532,-1.0634,0,-0.9796,-0.9925,-0.9945,-1.0058,-1.0121,-1.0124,-1.0187,-1.0237,-1.0264,-1.0322,-1.0353,-1.042,-1.04,-1.0425,-1.0473,-1.0508,-1.0567,-1.0501,-1.0584,-1.0586,-1.0566,-1.0682,-1.0691,-1.0784,-1.0647,-1.065,-1.0651,0,-0.9931,-0.9988,-1.0107,-1.0165,-1.0193,-1.0249,-1.0315,-1.0371,-1.0427,-1.0443,-1.049,-1.0498,-1.0574,-1.0537,-1.0642,-1.0596,-1.0631,-1.0654,-1.0658,-1.0665,-1.0622,-1.069,-1.0815,-1.0828,-1.0673,-1.0671,-1.067,0,-0.9997,-1.0104,-1.0188,-1.0218,-1.0289,-1.0328,-1.036,-1.0413,-1.0454,-1.0512,-1.0538,-1.0605,-1.0642,-1.0693,-1.0719,-1.069,-1.0822,-1.0787,-1.0837,-1.0836,-1.0863,-1.0861,-1.0993,-1.0889,-1.0889,-1.0889,-1.0888,0,-1.0106,-1.0178,-1.0218,-1.027,-1.035,-1.0374,-1.0453,-1.0484,-1.0531,-1.0588,-1.0596,-1.065,-1.0682,-1.0741,-1.0763,-1.0845,-1.0862,-1.0877,-1.0881,-1.0875,-1.0873,-1.0897,-1.0891,-1.0892,-1.0892,-1.0891,-1.089,0,-1.0193,-1.0223,-1.0314,-1.0373,-1.039,-1.0446,-1.0497,-1.0547,-1.0574,-1.0647,-1.0665,-1.0708,-1.0778,-1.0809,-1.0896,-1.091,-1.1003,-1.1004,-1.0983,-1.0985,-1.1031,-1.1026,-1.1183,-1.1204,-1.1088,-1.1089,-1.109,0,-1.0259,-1.0314,-1.0378,-1.0417,-1.0449,-1.0511,-1.0552,-1.0577,-1.062,-1.0687,-1.0729,-1.0798,-1.0854,-1.0966,-1.1005,-1.1071,-1.1072,-1.1123,-1.1082,-1.1073,-1.107,-1.1066,-1.1071,-1.1129,-1.1131,-1.1132,-1.1132,0,-1.0374,-1.0385,-1.0443,-1.0506,-1.0554,-1.0606,-1.0656,-1.0688,-1.0721,-1.0768,-1.0838,-1.0882,-1.0969,-1.1038,-1.1106,-1.1139,-1.1141,-1.1145,-1.1159,-1.1153,-1.1137,-1.1144,-1.1001,-1.1141,-1.114,-1.1139,-1.1139,-1.1139,-1.0451,-1.0499,-1.0551,-1.0615,-1.0655,-1.0701,-1.075,-1.0783,-1.0841,-1.0913,-1.0925,-1.0999,-1.1053,-1.1144,-1.118,-1.1239,-1.1227,-1.1248,-1.1253,-1.1258,-1.1259,-1.1129,-1.1252,-1.1251,-1.1251,-1.1251,-1.1251,0,-1.0564,-1.0597,-1.0656,-1.0724,-1.0775,-1.0771,-1.0826,-1.0868,-1.0933,-1.0983,-1.1037,-1.1117,-1.1183,-1.1227,-1.1294,-1.1333,-1.1335,-1.1349,-1.1346,-1.1353,-1.1267,-1.1247,-1.1346,-1.1346,-1.1346,-1.1346,-1.1346,-1.1346,-1.0628,-1.0708,-1.0726,-1.0826,-1.0859,-1.093,-1.0962,-1.1004,-1.1043,-1.1132,-1.1186,-1.1213,-1.1261,-1.1331,-1.1391,-1.1402,-1.1426,-1.144,-1.145,-1.1369,-1.1359,-1.135,-1.133,-1.1445,-1.1445,-1.1531,-1.1531,-1.1532]},{"header":{"parameterUnit":"m.s-1","parameterCategory":1,"la1":30.2991,"la2":30.254,"lo1":-89.0895,"lo2":-89.0444,"dy":0.0017,"dx":0.0017,"nx":28,"ny":28,"refTime":"2025-03-31T03:00:00:Z","depth":0,"parameterNumber":3,"parameterNumberName":"V-component_of_WINDS"},"data":[0,0,0,0,0,0,0,0,0,0,0,0,0,0,0,0,0,0,0,0,0,0,0,0,0,0,0,0,0,0,0,0,0,0,0,0,0,0,0,0,0,0,0,0,0,0,0,0,0,0,0,0,0,0,0,0,0,0,3.1125,3.1125,0,3.1182,3.1183,3.1184,3.1244,3.1245,3.1246,3.1246,3.1301,3.1301,3.1302,0,0,0,0,0,0,0,0,0,0,0,0,0,3.1064,3.1065,3.1125,3.1125,3.1126,3.1182,3.1183,3.1184,3.1244,3.1245,3.1246,3.1247,3.13,3.1301,3.1302,0,0,0,0,0,0,0,0,0,0,0,0,0,3.1103,3.1065,3.1125,3.1163,3.1167,3.1182,3.1183,3.1184,3.1244,3.1245,3.1246,3.1247,3.13,3.1301,3.1302,3.1282,0,0,3.1305,3.1305,0,0,0,0,0,0,0,0,3.11,3.1105,3.1157,3.116,3.1165,3.1208,3.1182,3.1217,3.1243,3.1214,3.1247,3.1248,3.1268,3.1272,3.128,3.1285,3.1287,3.1305,3.1306,3.1306,3.1306,0,0,0,0,0,0,0,3.1098,3.1103,3.1147,3.1157,3.1162,3.1176,3.1183,3.1189,3.1233,3.1217,3.1222,3.1228,3.1271,3.1279,3.1281,3.1288,3.1305,3.1306,3.1306,3.1307,3.1283,3.1282,0,0,0,0,0,0,3.109,3.11,3.1146,3.1149,3.1135,3.1177,3.1184,3.1192,3.1233,3.1241,3.1227,3.123,3.1276,3.128,3.1284,3.1265,3.1306,3.1307,3.1307,3.1284,3.1283,3.1281,0,0,0,0,0,0,3.1088,3.1093,3.1143,3.1126,3.1133,3.1176,3.1185,3.1193,3.1201,3.1241,3.1249,3.1227,3.1278,3.1282,3.1283,3.1268,3.1307,3.1308,3.1286,3.1284,3.1282,3.1227,0,0,0,0,0,0,3.1086,3.1092,3.1086,3.1125,3.1134,3.1143,3.1184,3.1193,3.1203,3.1209,3.1243,3.125,3.1279,3.1282,3.1284,3.127,3.1309,3.1287,3.1285,3.1283,3.1231,3.1224,3.1218,0,0,0,0,0,3.1084,3.1066,3.1085,3.109,3.1127,3.1142,3.1146,3.1182,3.1202,3.1195,3.1221,3.1249,3.1269,3.1281,3.1285,3.127,3.1288,3.1285,3.1283,3.1234,3.1225,3.1218,0,0,0,0,0,0,3.1021,3.1072,3.1093,3.1088,3.1111,3.1152,3.1145,3.1171,3.1187,3.1191,3.1233,3.124,3.1236,3.1253,3.1266,3.1255,3.1283,3.1281,3.1244,3.1237,3.123,3.1226,3.131,0,0,0,0,0,3.1007,3.1016,3.1059,3.1051,3.1061,3.1101,3.1108,3.1134,3.1158,3.1167,3.1193,3.1214,3.1226,3.1232,3.1244,3.1234,3.1243,3.1226,3.1219,3.1214,3.1212,3.1209,3.1203,3.1272,3.1272,3.1272,0,0,3.0977,3.1006,3.1009,3.1039,3.1059,3.1067,3.1108,3.1114,3.112,3.1167,3.1171,3.1191,3.1217,3.1213,3.1212,3.1227,3.1195,3.1211,3.1206,3.1207,3.1206,3.1199,3.1193,3.1271,3.1271,3.1271,0,0,3.0928,3.095,3.0947,3.0967,3.0998,3.1025,3.1024,3.1062,3.1078,3.1083,3.1119,3.1127,3.1145,3.1163,3.1174,3.1135,3.1161,3.1137,3.1104,3.1102,3.1096,3.1091,3.1079,3.1073,3.1135,3.1135,3.1135,0,3.0886,3.0901,3.0941,3.0946,3.0959,3.1004,3.1002,3.1018,3.1051,3.1058,3.1075,3.1101,3.1122,3.1124,3.1114,3.1121,3.1122,3.1134,3.1094,3.109,3.1086,3.1074,3.1069,3.1132,3.1132,3.1133,3.1133,0,3.0849,3.0859,3.0852,3.0886,3.0898,3.0898,3.0938,3.0945,3.097,3.0996,3.1001,3.1028,3.1048,3.105,3.1073,3.1055,3.1064,3.1086,3.1115,3.1076,3.1065,3.1061,3.1128,3.1129,3.113,3.113,0,0,3.076,3.0818,3.0815,3.0832,3.0871,3.0879,3.0882,3.0904,3.091,3.0931,3.0935,3.0951,3.0973,3.0986,3.1012,3.101,3.0979,3.1033,3.1034,3.1023,3.0963,3.0946,3.094,3.0997,3.0996,3.0995,3.0961,0,3.0718,3.0728,3.0766,3.0765,3.0775,3.082,3.0823,3.0847,3.0871,3.0882,3.0908,3.092,3.0947,3.0956,3.0956,3.0982,3.0967,3.0985,3.1,3.1,3.0993,3.0934,3.0916,3.0882,3.0957,3.0956,3.0956,0,3.067,3.0692,3.0692,3.0733,3.0739,3.0741,3.0766,3.0776,3.0804,3.0822,3.0838,3.0868,3.0874,3.0901,3.091,3.0921,3.093,3.0944,3.0944,3.0947,3.0976,3.0937,3.0872,3.0868,3.0949,3.095,3.095,0,3.0607,3.0635,3.064,3.0653,3.0701,3.0702,3.0721,3.0751,3.0763,3.0784,3.0792,3.0812,3.0823,3.0838,3.0872,3.0889,3.0878,3.0907,3.0893,3.0892,3.0888,3.0888,3.0825,3.0892,3.0892,3.0892,3.0893,0,3.0556,3.0555,3.0613,3.0616,3.0616,3.066,3.0658,3.0682,3.0709,3.0717,3.0756,3.0762,3.0808,3.0819,3.0846,3.0851,3.0855,3.0869,3.0876,3.0866,3.0865,3.0873,3.0876,3.0891,3.0891,3.0892,3.0892,0,3.0485,3.0524,3.0533,3.0579,3.059,3.0589,3.0627,3.0632,3.0659,3.0669,3.0674,3.0717,3.0733,3.0769,3.0793,3.0812,3.081,3.0822,3.0801,3.0805,3.079,3.0791,3.073,3.0725,3.0794,3.0793,3.0793,0,3.0451,3.0452,3.0499,3.0508,3.0527,3.0541,3.0554,3.0597,3.0609,3.0643,3.0643,3.0663,3.0681,3.0704,3.0737,3.0756,3.077,3.0748,3.0773,3.0764,3.0772,3.0772,3.0772,3.0742,3.0741,3.074,3.074,0,3.0386,3.0406,3.0425,3.045,3.0465,3.0487,3.051,3.0515,3.0564,3.0575,3.0593,3.0607,3.0635,3.0654,3.0679,3.0698,3.0727,3.0732,3.073,3.0719,3.0708,3.0715,3.0786,3.0733,3.0733,3.0734,3.0734,3.0734,3.0334,3.0338,3.0372,3.0392,3.0415,3.0436,3.0444,3.0474,3.049,3.0517,3.0541,3.0558,3.0588,3.0625,3.0643,3.0656,3.067,3.0666,3.0666,3.0664,3.0661,3.0705,3.066,3.066,3.066,3.0661,3.0661,0,3.0273,3.0298,3.0316,3.0349,3.0365,3.0393,3.0421,3.0432,3.0446,3.0473,3.0491,3.0513,3.0532,3.0567,3.0589,3.0593,3.0607,3.0598,3.0598,3.0602,3.0646,3.0646,3.0586,3.0586,3.0586,3.0586,3.0586,3.0586,3.0243,3.0251,3.0276,3.0297,3.0321,3.034,3.0354,3.0374,3.0396,3.0419,3.0437,3.046,3.049,3.0516,3.0535,3.0545,3.0551,3.0538,3.0552,3.0592,3.0599,3.0606,3.0606,3.0539,3.0539,3.0508,3.0508,3.0507]}]]